iso_date,epoch_date,Year,Hour,Min,DOY,POS_DOY,Lat,Lon,BP,Ts,Ta,has_bp,has_ts,has_ta,BuoyID,Buoy_Type,Buoy_Owner,Logistics,Hemisphere
2017-03-08T01:19:12Z,1488935952,2017,1,19,67.055,67.055,70.20036,-148.44865,-999.00,-0.01,-999.0,no,yes,no,300234065602670,Sidekick2,ODU,unknown,North
2017-03-08T01:20:38Z,1488936038,2017,1,20,67.056,67.056,70.20036,-148.44865,-999.00,-0.01,-999.0,no,yes,no,300234065602670,Sidekick2,ODU,unknown,North
2017-03-08T01:29:16Z,1488936557,2017,1,30,67.062,67.062,70.20034,-148.44865,-999.00,-15.29,-999.0,no,yes,no,300234065602670,Sidekick2,ODU,unknown,North
2017-03-08T01:39:21Z,1488937162,2017,1,40,67.069,67.069,70.20033,-148.4487,-999.00,-15.32,-999.0,no,yes,no,300234065602670,Sidekick2,ODU,unknown,North
2017-03-08T01:49:26Z,1488937766,2017,1,50,67.076,67.076,70.20037,-148.44864,-999.00,-15.78,-999.0,no,yes,no,300234065602670,Sidekick2,ODU,unknown,North
2017-03-08T01:59:31Z,1488938371,2017,2,0,67.083,67.083,70.20036,-148.44865,-999.00,-16.46,-999.0,no,yes,no,300234065602670,Sidekick2,ODU,unknown,North
2017-03-08T02:09:36Z,1488938976,2017,2,10,67.09,67.09,70.20036,-148.44865,-999.00,-17.25,-999.0,no,yes,no,300234065602670,Sidekick2,ODU,unknown,North
2017-03-08T02:19:40Z,1488939581,2017,2,20,67.097,67.097,70.20037,-148.44865,-999.00,-18.04,-999.0,no,yes,no,300234065602670,Sidekick2,ODU,unknown,North
2017-03-08T02:29:45Z,1488940186,2017,2,30,67.104,67.104,70.20041,-148.44859,-999.00,-18.77,-999.0,no,yes,no,300234065602670,Sidekick2,ODU,unknown,North
2017-03-08T02:39:50Z,1488940790,2017,2,40,67.111,67.111,70.20036,-148.44865,-999.00,-19.48,-999.0,no,yes,no,300234065602670,Sidekick2,ODU,unknown,North
2017-03-08T02:49:55Z,1488941395,2017,2,50,67.118,67.118,70.20035,-148.44867,-999.00,-20.1,-999.0,no,yes,no,300234065602670,Sidekick2,ODU,unknown,North
2017-03-08T03:00:00Z,1488942000,2017,3,0,67.125,67.125,70.20034,-148.44862,-999.00,-20.66,-999.0,no,yes,no,300234065602670,Sidekick2,ODU,unknown,North
2017-03-08T03:10:04Z,1488942605,2017,3,10,67.132,67.132,70.20036,-148.44865,-999.00,-21.19,-999.0,no,yes,no,300234065602670,Sidekick2,ODU,unknown,North
2017-03-08T03:20:09Z,1488943210,2017,3,20,67.139,67.139,70.20036,-148.44871,-999.00,-21.67,-999.0,no,yes,no,300234065602670,Sidekick2,ODU,unknown,North
2017-03-08T03:30:14Z,1488943814,2017,3,30,67.146,67.146,70.20033,-148.44865,-999.00,-22.09,-999.0,no,yes,no,300234065602670,Sidekick2,ODU,unknown,North
2017-03-08T03:40:19Z,1488944419,2017,3,40,67.153,67.153,70.20033,-148.44865,-999.00,-22.51,-999.0,no,yes,no,300234065602670,Sidekick2,ODU,unknown,North
2017-03-09T00:10:04Z,1489018205,2017,0,10,68.007,68.007,72.75807,-147.27565,-999.00,-0.01,-999.0,no,yes,no,300234065602670,Sidekick2,ODU,unknown,North
2017-03-09T00:20:09Z,1489018810,2017,0,20,68.014,68.014,72.75824,-147.2758,-999.00,8.21,-999.0,no,yes,no,300234065602670,Sidekick2,ODU,unknown,North
2017-03-09T00:30:14Z,1489019414,2017,0,30,68.021,68.021,72.75839,-147.276,-999.00,6.12,-999.0,no,yes,no,300234065602670,Sidekick2,ODU,unknown,North
2017-03-09T00:40:19Z,1489020019,2017,0,40,68.028,68.028,72.75855,-147.2762,-999.00,3.47,-999.0,no,yes,no,300234065602670,Sidekick2,ODU,unknown,North
2017-03-09T00:50:24Z,1489020624,2017,0,50,68.035,68.035,72.75873,-147.27632,-999.00,0.66,-999.0,no,yes,no,300234065602670,Sidekick2,ODU,unknown,North
2017-03-09T01:00:28Z,1489021229,2017,1,0,68.042,68.042,72.7589,-147.27652,-999.00,-1.86,-999.0,no,yes,no,300234065602670,Sidekick2,ODU,unknown,North
2017-03-09T01:10:33Z,1489021834,2017,1,10,68.049,68.049,72.75909,-147.27658,-999.00,-4.08,-999.0,no,yes,no,300234065602670,Sidekick2,ODU,unknown,North
2017-03-09T01:19:12Z,1489022352,2017,1,19,68.055,68.055,72.75928,-147.27667,-999.00,-6.32,-999.0,no,yes,no,300234065602670,Sidekick2,ODU,unknown,North
2017-03-09T01:20:38Z,1489022438,2017,1,20,68.056,68.056,72.75928,-147.27667,-999.00,-6.32,-999.0,no,yes,no,300234065602670,Sidekick2,ODU,unknown,North
2017-03-09T01:29:16Z,1489022957,2017,1,30,68.062,68.062,72.75948,-147.27675,-999.00,-8.34,-999.0,no,yes,no,300234065602670,Sidekick2,ODU,unknown,North
2017-03-09T01:39:21Z,1489023562,2017,1,40,68.069,68.069,72.75967,-147.27698,-999.00,-10.21,-999.0,no,yes,no,300234065602670,Sidekick2,ODU,unknown,North
2017-03-09T01:49:26Z,1489024166,2017,1,50,68.076,68.076,72.75986,-147.27719,-999.00,-11.98,-999.0,no,yes,no,300234065602670,Sidekick2,ODU,unknown,North
2017-03-09T01:59:31Z,1489024771,2017,2,0,68.083,68.083,72.76006,-147.27745,-999.00,-13.41,-999.0,no,yes,no,300234065602670,Sidekick2,ODU,unknown,North
2017-03-09T02:09:36Z,1489025376,2017,2,10,68.09,68.09,72.76028,-147.27768,-999.00,-14.86,-999.0,no,yes,no,300234065602670,Sidekick2,ODU,unknown,North
2017-03-09T02:19:40Z,1489025981,2017,2,20,68.097,68.097,72.76049,-147.27795,-999.00,-15.94,-999.0,no,yes,no,300234065602670,Sidekick2,ODU,unknown,North
2017-03-09T02:29:45Z,1489026586,2017,2,30,68.104,68.104,72.76071,-147.27832,-999.00,-17.05,-999.0,no,yes,no,300234065602670,Sidekick2,ODU,unknown,North
2017-03-09T02:39:50Z,1489027190,2017,2,40,68.111,68.111,72.76094,-147.27866,-999.00,-18.1,-999.0,no,yes,no,300234065602670,Sidekick2,ODU,unknown,North
2017-03-09T02:49:55Z,1489027795,2017,2,50,68.118,68.118,72.76119,-147.27895,-999.00,-18.96,-999.0,no,yes,no,300234065602670,Sidekick2,ODU,unknown,North
2017-03-09T03:00:00Z,1489028400,2017,3,0,68.125,68.125,72.76144,-147.27922,-999.00,-19.71,-999.0,no,yes,no,300234065602670,Sidekick2,ODU,unknown,North
2017-03-09T03:10:04Z,1489029005,2017,3,10,68.132,68.132,72.76173,-147.27945,-999.00,-20.44,-999.0,no,yes,no,300234065602670,Sidekick2,ODU,unknown,North
2017-03-09T03:20:09Z,1489029610,2017,3,20,68.139,68.139,72.76199,-147.27975,-999.00,-21.05,-999.0,no,yes,no,300234065602670,Sidekick2,ODU,unknown,North
2017-03-09T03:30:14Z,1489030214,2017,3,30,68.146,68.146,72.76228,-147.27983,-999.00,-21.55,-999.0,no,yes,no,300234065602670,Sidekick2,ODU,unknown,North
2017-03-09T03:40:19Z,1489030819,2017,3,40,68.153,68.153,72.76263,-147.27982,-999.00,-22.03,-999.0,no,yes,no,300234065602670,Sidekick2,ODU,unknown,North
2017-03-09T03:50:24Z,1489031424,2017,3,50,68.16,68.16,72.76296,-147.27983,-999.00,-22.45,-999.0,no,yes,no,300234065602670,Sidekick2,ODU,unknown,North
2017-03-09T04:00:28Z,1489032029,2017,4,0,68.167,68.167,72.76328,-147.27991,-999.00,-22.79,-999.0,no,yes,no,300234065602670,Sidekick2,ODU,unknown,North
2017-03-09T04:30:43Z,1489033843,2017,4,30,68.188,68.188,72.7642,-147.2803,-999.00,-23.61,-999.0,no,yes,no,300234065602670,Sidekick2,ODU,unknown,North
2017-03-09T04:59:31Z,1489035571,2017,5,0,68.208,68.208,72.76498,-147.2814,-999.00,-24.07,-999.0,no,yes,no,300234065602670,Sidekick2,ODU,unknown,North
2017-03-09T05:29:45Z,1489037386,2017,5,30,68.229,68.229,72.76578,-147.28227,-999.00,-24.28,-999.0,no,yes,no,300234065602670,Sidekick2,ODU,unknown,North
2017-03-09T06:00:00Z,1489039200,2017,6,0,68.25,68.25,72.76662,-147.28314,-999.00,-24.42,-999.0,no,yes,no,300234065602670,Sidekick2,ODU,unknown,North
2017-03-09T06:30:14Z,1489041014,2017,6,30,68.271,68.271,72.76759,-147.28439,-999.00,-24.46,-999.0,no,yes,no,300234065602670,Sidekick2,ODU,unknown,North
2017-03-09T07:00:28Z,1489042829,2017,7,0,68.292,68.292,72.76862,-147.28587,-999.00,-24.38,-999.0,no,yes,no,300234065602670,Sidekick2,ODU,unknown,North
2017-03-09T07:29:16Z,1489044557,2017,7,30,68.312,68.312,72.76955,-147.28706,-999.00,-24.22,-999.0,no,yes,no,300234065602670,Sidekick2,ODU,unknown,North
2017-03-09T07:59:31Z,1489046371,2017,8,0,68.333,68.333,72.77056,-147.28839,-999.00,-23.97,-999.0,no,yes,no,300234065602670,Sidekick2,ODU,unknown,North
2017-03-09T08:29:45Z,1489048186,2017,8,30,68.354,68.354,72.77188,-147.28981,-999.00,-23.66,-999.0,no,yes,no,300234065602670,Sidekick2,ODU,unknown,North
2017-03-09T09:00:00Z,1489050000,2017,9,0,68.375,68.375,72.77331,-147.2915,-999.00,-23.29,-999.0,no,yes,no,300234065602670,Sidekick2,ODU,unknown,North
2017-03-09T09:30:14Z,1489051814,2017,9,30,68.396,68.396,72.77476,-147.29344,-999.00,-22.82,-999.0,no,yes,no,300234065602670,Sidekick2,ODU,unknown,North
2017-03-09T10:00:28Z,1489053629,2017,10,0,68.417,68.417,72.77651,-147.29581,-999.00,-22.32,-999.0,no,yes,no,300234065602670,Sidekick2,ODU,unknown,North
2017-03-09T10:30:43Z,1489055443,2017,10,30,68.438,68.438,72.7785,-147.29784,-999.00,-21.74,-999.0,no,yes,no,300234065602670,Sidekick2,ODU,unknown,North
2017-03-09T10:59:31Z,1489057171,2017,11,0,68.458,68.458,72.78072,-147.30002,-999.00,-21.15,-999.0,no,yes,no,300234065602670,Sidekick2,ODU,unknown,North
2017-03-09T11:29:45Z,1489058986,2017,11,30,68.479,68.479,72.78291,-147.30144,-999.00,-20.48,-999.0,no,yes,no,300234065602670,Sidekick2,ODU,unknown,North
2017-03-09T12:00:00Z,1489060800,2017,12,0,68.5,68.5,72.78538,-147.30272,-999.00,-19.78,-999.0,no,yes,no,300234065602670,Sidekick2,ODU,unknown,North
2017-03-09T12:30:14Z,1489062614,2017,12,30,68.521,68.521,72.78791,-147.30357,-999.00,-19.11,-999.0,no,yes,no,300234065602670,Sidekick2,ODU,unknown,North
2017-03-09T13:00:28Z,1489064429,2017,13,0,68.542,68.542,72.79057,-147.30322,-999.00,-18.56,-999.0,no,yes,no,300234065602670,Sidekick2,ODU,unknown,North
2017-03-09T13:29:16Z,1489066157,2017,13,30,68.562,68.562,72.79304,-147.30222,-999.00,-18.01,-999.0,no,yes,no,300234065602670,Sidekick2,ODU,unknown,North
2017-03-09T13:59:31Z,1489067971,2017,14,0,68.583,68.583,72.79553,-147.29599,-999.00,-17.44,-999.0,no,yes,no,300234065602670,Sidekick2,ODU,unknown,North
2017-03-09T14:29:45Z,1489069786,2017,14,30,68.604,68.604,72.79771,-147.29077,-999.00,-16.82,-999.0,no,yes,no,300234065602670,Sidekick2,ODU,unknown,North
2017-03-09T15:00:00Z,1489071600,2017,15,0,68.625,68.625,72.79967,-147.28651,-999.00,-16.23,-999.0,no,yes,no,300234065602670,Sidekick2,ODU,unknown,North
2017-03-09T15:30:14Z,1489073414,2017,15,30,68.646,68.646,72.80133,-147.28215,-999.00,-15.58,-999.0,no,yes,no,300234065602670,Sidekick2,ODU,unknown,North
2017-03-09T16:00:28Z,1489075229,2017,16,0,68.667,68.667,72.8029,-147.27779,-999.00,-14.95,-999.0,no,yes,no,300234065602670,Sidekick2,ODU,unknown,North
2017-03-09T16:30:43Z,1489077043,2017,16,30,68.688,68.688,72.80447,-147.27167,-999.00,-14.36,-999.0,no,yes,no,300234065602670,Sidekick2,ODU,unknown,North
2017-03-09T16:59:31Z,1489078771,2017,17,0,68.708,68.708,72.80593,-147.26504,-999.00,-13.92,-999.0,no,yes,no,300234065602670,Sidekick2,ODU,unknown,North
2017-03-09T17:29:45Z,1489080586,2017,17,30,68.729,68.729,72.80726,-147.26099,-999.00,-13.5,-999.0,no,yes,no,300234065602670,Sidekick2,ODU,unknown,North
2017-03-09T18:00:00Z,1489082400,2017,18,0,68.75,68.75,72.80846,-147.25613,-999.00,-12.91,-999.0,no,yes,no,300234065602670,Sidekick2,ODU,unknown,North
2017-03-09T18:30:14Z,1489084214,2017,18,30,68.771,68.771,72.80957,-147.25223,-999.00,-12.2,-999.0,no,yes,no,300234065602670,Sidekick2,ODU,unknown,North
2017-03-09T19:00:28Z,1489086029,2017,19,0,68.792,68.792,72.81068,-147.24951,-999.00,-11.56,-999.0,no,yes,no,300234065602670,Sidekick2,ODU,unknown,North
2017-03-09T19:29:16Z,1489087757,2017,19,30,68.812,68.812,72.81175,-147.24677,-999.00,-11.1,-999.0,no,yes,no,300234065602670,Sidekick2,ODU,unknown,North
2017-03-09T19:59:31Z,1489089571,2017,20,0,68.833,68.833,72.81274,-147.244,-999.00,-10.77,-999.0,no,yes,no,300234065602670,Sidekick2,ODU,unknown,North
2017-03-09T20:29:45Z,1489091386,2017,20,30,68.854,68.854,72.81368,-147.24152,-999.00,-10.47,-999.0,no,yes,no,300234065602670,Sidekick2,ODU,unknown,North
2017-03-09T21:00:00Z,1489093200,2017,21,0,68.875,68.875,72.81457,-147.23973,-999.00,-10.15,-999.0,no,yes,no,300234065602670,Sidekick2,ODU,unknown,North
2017-03-09T21:30:14Z,1489095014,2017,21,30,68.896,68.896,72.81541,-147.23831,-999.00,-9.73,-999.0,no,yes,no,300234065602670,Sidekick2,ODU,unknown,North
2017-03-09T22:00:28Z,1489096829,2017,22,0,68.917,68.917,72.81619,-147.2373,-999.00,-9.35,-999.0,no,yes,no,300234065602670,Sidekick2,ODU,unknown,North
2017-03-09T22:30:43Z,1489098643,2017,22,30,68.938,68.938,72.81694,-147.23636,-999.00,-9.01,-999.0,no,yes,no,300234065602670,Sidekick2,ODU,unknown,North
2017-03-09T22:59:31Z,1489100371,2017,23,0,68.958,68.958,72.8176,-147.23549,-999.00,-8.91,-999.0,no,yes,no,300234065602670,Sidekick2,ODU,unknown,North
2017-03-09T23:29:45Z,1489102186,2017,23,30,68.979,68.979,72.81822,-147.23463,-999.00,-8.96,-999.0,no,yes,no,300234065602670,Sidekick2,ODU,unknown,North
2017-03-10T00:00:00Z,1489104000,2017,0,0,69.0,69.0,72.81875,-147.23408,-999.00,-9.19,-999.0,no,yes,no,300234065602670,Sidekick2,ODU,unknown,North
2017-03-10T00:30:14Z,1489105814,2017,0,30,69.021,69.021,72.81915,-147.23375,-999.00,-9.57,-999.0,no,yes,no,300234065602670,Sidekick2,ODU,unknown,North
2017-03-10T01:00:28Z,1489107629,2017,1,0,69.042,69.042,72.81938,-147.23349,-999.00,-10.09,-999.0,no,yes,no,300234065602670,Sidekick2,ODU,unknown,North
2017-03-10T01:29:16Z,1489109357,2017,1,30,69.062,69.062,72.81953,-147.23308,-999.00,-10.79,-999.0,no,yes,no,300234065602670,Sidekick2,ODU,unknown,North
2017-03-10T01:59:31Z,1489111171,2017,2,0,69.083,69.083,72.81953,-147.23305,-999.00,-11.69,-999.0,no,yes,no,300234065602670,Sidekick2,ODU,unknown,North
2017-03-10T02:29:45Z,1489112986,2017,2,30,69.104,69.104,72.81951,-147.23317,-999.00,-12.75,-999.0,no,yes,no,300234065602670,Sidekick2,ODU,unknown,North
2017-03-10T03:00:00Z,1489114800,2017,3,0,69.125,69.125,72.81933,-147.23296,-999.00,-13.86,-999.0,no,yes,no,300234065602670,Sidekick2,ODU,unknown,North
2017-03-10T03:30:14Z,1489116614,2017,3,30,69.146,69.146,72.81902,-147.23259,-999.00,-15.07,-999.0,no,yes,no,300234065602670,Sidekick2,ODU,unknown,North
2017-03-10T04:00:28Z,1489118429,2017,4,0,69.167,69.167,72.81868,-147.23219,-999.00,-16.2,-999.0,no,yes,no,300234065602670,Sidekick2,ODU,unknown,North
2017-03-10T04:30:43Z,1489120243,2017,4,30,69.188,69.188,72.81834,-147.23181,-999.00,-17.18,-999.0,no,yes,no,300234065602670,Sidekick2,ODU,unknown,North
2017-03-10T04:59:31Z,1489121971,2017,5,0,69.208,69.208,72.81808,-147.23149,-999.00,-18.0,-999.0,no,yes,no,300234065602670,Sidekick2,ODU,unknown,North
2017-03-10T05:29:45Z,1489123786,2017,5,30,69.229,69.229,72.81774,-147.23109,-999.00,-18.61,-999.0,no,yes,no,300234065602670,Sidekick2,ODU,unknown,North
2017-03-10T06:00:00Z,1489125600,2017,6,0,69.25,69.25,72.81736,-147.23062,-999.00,-18.66,-999.0,no,yes,no,300234065602670,Sidekick2,ODU,unknown,North
2017-03-10T06:30:14Z,1489127414,2017,6,30,69.271,69.271,72.81698,-147.23016,-999.00,-18.04,-999.0,no,yes,no,300234065602670,Sidekick2,ODU,unknown,North
2017-03-10T07:00:28Z,1489129229,2017,7,0,69.292,69.292,72.8166,-147.22967,-999.00,-17.14,-999.0,no,yes,no,300234065602670,Sidekick2,ODU,unknown,North
2017-03-10T07:29:16Z,1489130957,2017,7,30,69.312,69.312,72.81631,-147.22922,-999.00,-16.19,-999.0,no,yes,no,300234065602670,Sidekick2,ODU,unknown,North
2017-03-10T07:59:31Z,1489132771,2017,8,0,69.333,69.333,72.81602,-147.2289,-999.00,-15.35,-999.0,no,yes,no,300234065602670,Sidekick2,ODU,unknown,North
2017-03-10T08:29:45Z,1489134586,2017,8,30,69.354,69.354,72.81579,-147.22862,-999.00,-14.67,-999.0,no,yes,no,300234065602670,Sidekick2,ODU,unknown,North
2017-03-10T09:00:00Z,1489136400,2017,9,0,69.375,69.375,72.81559,-147.22841,-999.00,-14.1,-999.0,no,yes,no,300234065602670,Sidekick2,ODU,unknown,North
2017-03-10T09:30:14Z,1489138214,2017,9,30,69.396,69.396,72.81547,-147.2283,-999.00,-13.63,-999.0,no,yes,no,300234065602670,Sidekick2,ODU,unknown,North
2017-03-10T10:00:28Z,1489140029,2017,10,0,69.417,69.417,72.8154,-147.22823,-999.00,-13.25,-999.0,no,yes,no,300234065602670,Sidekick2,ODU,unknown,North
2017-03-10T10:30:43Z,1489141843,2017,10,30,69.438,69.438,72.81541,-147.22827,-999.00,-12.94,-999.0,no,yes,no,300234065602670,Sidekick2,ODU,unknown,North
2017-03-10T10:59:31Z,1489143571,2017,11,0,69.458,69.458,72.81542,-147.22832,-999.00,-12.67,-999.0,no,yes,no,300234065602670,Sidekick2,ODU,unknown,North
2017-03-10T11:29:45Z,1489145386,2017,11,30,69.479,69.479,72.81541,-147.22833,-999.00,-12.46,-999.0,no,yes,no,300234065602670,Sidekick2,ODU,unknown,North
2017-03-10T12:00:00Z,1489147200,2017,12,0,69.5,69.5,72.81541,-147.22835,-999.00,-12.28,-999.0,no,yes,no,300234065602670,Sidekick2,ODU,unknown,North
2017-03-10T12:30:14Z,1489149014,2017,12,30,69.521,69.521,72.81544,-147.22836,-999.00,-12.13,-999.0,no,yes,no,300234065602670,Sidekick2,ODU,unknown,North
2017-03-10T13:00:28Z,1489150829,2017,13,0,69.542,69.542,72.81547,-147.22839,-999.00,-12.02,-999.0,no,yes,no,300234065602670,Sidekick2,ODU,unknown,North
2017-03-10T13:29:16Z,1489152557,2017,13,30,69.562,69.562,72.81551,-147.22836,-999.00,-11.94,-999.0,no,yes,no,300234065602670,Sidekick2,ODU,unknown,North
2017-03-10T13:59:31Z,1489154371,2017,14,0,69.583,69.583,72.81556,-147.2285,-999.00,-11.86,-999.0,no,yes,no,300234065602670,Sidekick2,ODU,unknown,North
2017-03-10T14:29:45Z,1489156186,2017,14,30,69.604,69.604,72.81564,-147.22861,-999.00,-11.77,-999.0,no,yes,no,300234065602670,Sidekick2,ODU,unknown,North
2017-03-10T15:00:00Z,1489158000,2017,15,0,69.625,69.625,72.81572,-147.22875,-999.00,-11.67,-999.0,no,yes,no,300234065602670,Sidekick2,ODU,unknown,North
2017-03-10T15:30:14Z,1489159814,2017,15,30,69.646,69.646,72.81585,-147.22894,-999.00,-11.59,-999.0,no,yes,no,300234065602670,Sidekick2,ODU,unknown,North
2017-03-10T16:00:28Z,1489161629,2017,16,0,69.667,69.667,72.81609,-147.22919,-999.00,-11.5,-999.0,no,yes,no,300234065602670,Sidekick2,ODU,unknown,North
2017-03-10T16:30:43Z,1489163443,2017,16,30,69.688,69.688,72.81644,-147.22961,-999.00,-11.42,-999.0,no,yes,no,300234065602670,Sidekick2,ODU,unknown,North
2017-03-10T16:59:31Z,1489165171,2017,17,0,69.708,69.708,72.81685,-147.23013,-999.00,-11.34,-999.0,no,yes,no,300234065602670,Sidekick2,ODU,unknown,North
2017-03-10T17:29:45Z,1489166986,2017,17,30,69.729,69.729,72.81736,-147.2308,-999.00,-11.23,-999.0,no,yes,no,300234065602670,Sidekick2,ODU,unknown,North
2017-03-10T18:00:00Z,1489168800,2017,18,0,69.75,69.75,72.81801,-147.23164,-999.00,-11.07,-999.0,no,yes,no,300234065602670,Sidekick2,ODU,unknown,North
2017-03-10T18:30:14Z,1489170614,2017,18,30,69.771,69.771,72.81882,-147.23279,-999.00,-10.85,-999.0,no,yes,no,300234065602670,Sidekick2,ODU,unknown,North
2017-03-10T19:00:28Z,1489172429,2017,19,0,69.792,69.792,72.81988,-147.23416,-999.00,-10.5,-999.0,no,yes,no,300234065602670,Sidekick2,ODU,unknown,North
2017-03-10T19:29:16Z,1489174157,2017,19,30,69.812,69.812,72.82104,-147.23587,-999.00,-9.98,-999.0,no,yes,no,300234065602670,Sidekick2,ODU,unknown,North
2017-03-10T19:59:31Z,1489175971,2017,20,0,69.833,69.833,72.82243,-147.23802,-999.00,-9.55,-999.0,no,yes,no,300234065602670,Sidekick2,ODU,unknown,North
2017-03-10T20:29:45Z,1489177786,2017,20,30,69.854,69.854,72.82389,-147.24046,-999.00,-9.15,-999.0,no,yes,no,300234065602670,Sidekick2,ODU,unknown,North
2017-03-10T21:00:00Z,1489179600,2017,21,0,69.875,69.875,72.82539,-147.24303,-999.00,-8.63,-999.0,no,yes,no,300234065602670,Sidekick2,ODU,unknown,North
2017-03-10T21:30:14Z,1489181414,2017,21,30,69.896,69.896,72.82705,-147.2457,-999.00,-8.08,-999.0,no,yes,no,300234065602670,Sidekick2,ODU,unknown,North
2017-03-10T22:00:28Z,1489183229,2017,22,0,69.917,69.917,72.8288,-147.24794,-999.00,-7.7,-999.0,no,yes,no,300234065602670,Sidekick2,ODU,unknown,North
2017-03-10T22:30:43Z,1489185043,2017,22,30,69.938,69.938,72.83069,-147.24968,-999.00,-7.25,-999.0,no,yes,no,300234065602670,Sidekick2,ODU,unknown,North
2017-03-10T22:59:31Z,1489186771,2017,23,0,69.958,69.958,72.8326,-147.25172,-999.00,-6.94,-999.0,no,yes,no,300234065602670,Sidekick2,ODU,unknown,North
2017-03-10T23:29:45Z,1489188586,2017,23,30,69.979,69.979,72.83454,-147.2542,-999.00,-6.69,-999.0,no,yes,no,300234065602670,Sidekick2,ODU,unknown,North
2017-03-11T00:00:00Z,1489190400,2017,0,0,70.0,70.0,72.83656,-147.25678,-999.00,-6.69,-999.0,no,yes,no,300234065602670,Sidekick2,ODU,unknown,North
2017-03-11T00:30:14Z,1489192214,2017,0,30,70.021,70.021,72.83855,-147.25906,-999.00,-6.99,-999.0,no,yes,no,300234065602670,Sidekick2,ODU,unknown,North
2017-03-11T01:00:28Z,1489194029,2017,1,0,70.042,70.042,72.84069,-147.26135,-999.00,-7.31,-999.0,no,yes,no,300234065602670,Sidekick2,ODU,unknown,North
2017-03-11T01:29:16Z,1489195757,2017,1,30,70.062,70.062,72.84283,-147.26303,-999.00,-7.51,-999.0,no,yes,no,300234065602670,Sidekick2,ODU,unknown,North
2017-03-11T01:59:31Z,1489197571,2017,2,0,70.083,70.083,72.84484,-147.26382,-999.00,-7.68,-999.0,no,yes,no,300234065602670,Sidekick2,ODU,unknown,North
2017-03-11T02:29:45Z,1489199386,2017,2,30,70.104,70.104,72.84648,-147.26428,-999.00,-7.8,-999.0,no,yes,no,300234065602670,Sidekick2,ODU,unknown,North
2017-03-11T03:00:00Z,1489201200,2017,3,0,70.125,70.125,72.84785,-147.26419,-999.00,-8.01,-999.0,no,yes,no,300234065602670,Sidekick2,ODU,unknown,North
2017-03-11T03:30:14Z,1489203014,2017,3,30,70.146,70.146,72.8492,-147.26373,-999.00,-8.14,-999.0,no,yes,no,300234065602670,Sidekick2,ODU,unknown,North
2017-03-11T04:00:28Z,1489204829,2017,4,0,70.167,70.167,72.85049,-147.26297,-999.00,-8.22,-999.0,no,yes,no,300234065602670,Sidekick2,ODU,unknown,North
2017-03-11T04:30:43Z,1489206643,2017,4,30,70.188,70.188,72.85181,-147.26154,-999.00,-8.18,-999.0,no,yes,no,300234065602670,Sidekick2,ODU,unknown,North
2017-03-11T04:59:31Z,1489208371,2017,5,0,70.208,70.208,72.85311,-147.2594,-999.00,-8.09,-999.0,no,yes,no,300234065602670,Sidekick2,ODU,unknown,North
2017-03-11T05:29:45Z,1489210186,2017,5,30,70.229,70.229,72.85415,-147.2567,-999.00,-7.96,-999.0,no,yes,no,300234065602670,Sidekick2,ODU,unknown,North
2017-03-11T06:00:00Z,1489212000,2017,6,0,70.25,70.25,72.85508,-147.25363,-999.00,-7.83,-999.0,no,yes,no,300234065602670,Sidekick2,ODU,unknown,North
2017-03-11T06:30:14Z,1489213814,2017,6,30,70.271,70.271,72.85595,-147.24999,-999.00,-7.7,-999.0,no,yes,no,300234065602670,Sidekick2,ODU,unknown,North
2017-03-11T07:00:28Z,1489215629,2017,7,0,70.292,70.292,72.85673,-147.24609,-999.00,-7.62,-999.0,no,yes,no,300234065602670,Sidekick2,ODU,unknown,North
2017-03-11T07:29:16Z,1489217357,2017,7,30,70.312,70.312,72.85752,-147.24167,-999.00,-7.56,-999.0,no,yes,no,300234065602670,Sidekick2,ODU,unknown,North
2017-03-11T07:59:31Z,1489219171,2017,8,0,70.333,70.333,72.85833,-147.23753,-999.00,-7.54,-999.0,no,yes,no,300234065602670,Sidekick2,ODU,unknown,North
2017-03-11T08:29:45Z,1489220986,2017,8,30,70.354,70.354,72.8591,-147.23328,-999.00,-7.51,-999.0,no,yes,no,300234065602670,Sidekick2,ODU,unknown,North
2017-03-11T09:00:00Z,1489222800,2017,9,0,70.375,70.375,72.85984,-147.2292,-999.00,-7.49,-999.0,no,yes,no,300234065602670,Sidekick2,ODU,unknown,North
2017-03-11T09:30:14Z,1489224614,2017,9,30,70.396,70.396,72.86047,-147.22549,-999.00,-7.38,-999.0,no,yes,no,300234065602670,Sidekick2,ODU,unknown,North
2017-03-11T10:00:28Z,1489226429,2017,10,0,70.417,70.417,72.8611,-147.22189,-999.00,-7.16,-999.0,no,yes,no,300234065602670,Sidekick2,ODU,unknown,North
2017-03-11T10:30:43Z,1489228243,2017,10,30,70.438,70.438,72.86174,-147.21823,-999.00,-6.89,-999.0,no,yes,no,300234065602670,Sidekick2,ODU,unknown,North
2017-03-11T10:59:31Z,1489229971,2017,11,0,70.458,70.458,72.8624,-147.21463,-999.00,-6.67,-999.0,no,yes,no,300234065602670,Sidekick2,ODU,unknown,North
2017-03-11T11:29:45Z,1489231786,2017,11,30,70.479,70.479,72.86292,-147.2106,-999.00,-6.44,-999.0,no,yes,no,300234065602670,Sidekick2,ODU,unknown,North
2017-03-11T12:00:00Z,1489233600,2017,12,0,70.5,70.5,72.86346,-147.20648,-999.00,-6.26,-999.0,no,yes,no,300234065602670,Sidekick2,ODU,unknown,North
2017-03-11T12:30:14Z,1489235414,2017,12,30,70.521,70.521,72.86392,-147.20274,-999.00,-6.08,-999.0,no,yes,no,300234065602670,Sidekick2,ODU,unknown,North
2017-03-11T13:00:28Z,1489237229,2017,13,0,70.542,70.542,72.86432,-147.19856,-999.00,-5.92,-999.0,no,yes,no,300234065602670,Sidekick2,ODU,unknown,North
2017-03-11T13:29:16Z,1489238957,2017,13,30,70.562,70.562,72.86467,-147.19424,-999.00,-5.78,-999.0,no,yes,no,300234065602670,Sidekick2,ODU,unknown,North
2017-03-11T13:59:31Z,1489240771,2017,14,0,70.583,70.583,72.86507,-147.19014,-999.00,-5.7,-999.0,no,yes,no,300234065602670,Sidekick2,ODU,unknown,North